TimeEST,TemperatureF,Dew PointF,Humidity,Sea Level PressureIn,VisibilityMPH,Wind Direction,Wind SpeedMPH,Gust SpeedMPH,PrecipitationIn,Events,Conditions,WindDirDegrees,DateUTC
12:54 AM,27.0,18.0,69,30.28,10.0,Calm,Calm,-,N/A,,Clear,0,2013-02-18 05:54:00
1:54 AM,26.1,18.0,71,30.30,10.0,Calm,Calm,-,N/A,,Clear,0,2013-02-18 06:54:00
2:54 AM,26.1,16.0,66,30.32,10.0,Calm,Calm,-,N/A,,Clear,0,2013-02-18 07:54:00
3:54 AM,24.1,19.0,81,30.31,10.0,Calm,Calm,-,N/A,,Clear,0,2013-02-18 08:54:00
4:54 AM,21.9,17.1,82,30.33,10.0,Calm,Calm,-,N/A,,Clear,0,2013-02-18 09:54:00
5:54 AM,23.0,17.1,78,30.35,10.0,Calm,Calm,-,N/A,,Clear,0,2013-02-18 10:54:00
6:54 AM,21.9,18.0,85,30.36,10.0,Calm,Calm,-,N/A,,Clear,0,2013-02-18 11:54:00
7:54 AM,26.1,18.0,71,30.38,10.0,Calm,Calm,-,N/A,,Clear,0,2013-02-18 12:54:00
8:54 AM,34.0,17.1,50,30.38,10.0,Calm,Calm,-,N/A,,Clear,0,2013-02-18 13:54:00
9:54 AM,39.0,19.9,46,30.39,10.0,Variable,3.5,-,N/A,,Clear,0,2013-02-18 14:54:00
10:54 AM,45.0,19.0,36,30.38,10.0,South,4.6,-,N/A,,Clear,190,2013-02-18 15:54:00
11:54 AM,48.0,21.0,34,30.37,10.0,Variable,4.6,-,N/A,,Clear,0,2013-02-18 16:54:00
12:54 PM,48.9,19.9,32,30.34,10.0,SW,8.1,-,N/A,,Clear,230,2013-02-18 17:54:00
1:54 PM,52.0,21.9,31,30.31,10.0,Variable,5.8,-,N/A,,Clear,0,2013-02-18 18:54:00
2:54 PM,54.0,21.9,29,30.29,10.0,Variable,6.9,-,N/A,,Clear,0,2013-02-18 19:54:00
3:54 PM,54.0,23.0,30,30.27,10.0,South,9.2,-,N/A,,Clear,190,2013-02-18 20:54:00
4:54 PM,53.1,24.1,32,30.27,10.0,South,5.8,-,N/A,,Clear,190,2013-02-18 21:54:00
5:54 PM,50.0,24.1,36,30.27,10.0,South,3.5,-,N/A,,Clear,190,2013-02-18 22:54:00
6:54 PM,48.0,25.0,41,30.27,10.0,South,5.8,-,N/A,,Clear,180,2013-02-18 23:54:00
7:54 PM,46.0,25.0,44,30.26,10.0,South,3.5,-,N/A,,Clear,170,2013-02-19 00:54:00
8:54 PM,45.0,25.0,46,30.25,10.0,South,8.1,-,N/A,,Clear,180,2013-02-19 01:54:00
9:54 PM,42.1,26.1,53,30.25,10.0,South,5.8,-,N/A,,Clear,180,2013-02-19 02:54:00
10:54 PM,41.0,25.0,53,30.23,10.0,South,6.9,-,N/A,,Clear,190,2013-02-19 03:54:00
11:54 PM,41.0,25.0,53,30.22,10.0,South,6.9,-,N/A,,Clear,190,2013-02-19 04:54:00